From 11/04/2019 00:00 to 11/20/2019 00:00

Date LAKE ELEVATION [FT] PRECIPITATION INCREMENT [IN] PRECIPITATION TOTAL [IN] AIR TEMPERATURE [F] RELATIVE HUMIDITY [%] RELEASE [CFS]
11/18/2019 12:00 -- -- -- -- -- 16.0
11/18/2019 11:00 114.80 0.00 -- 35.0 -- 15.8
11/18/2019 10:00 114.81 0.00 -- 35.0 -- 15.5
11/18/2019 09:00 114.80 0.00 -- 34.0 -- 15.8
11/18/2019 08:00 114.81 0.00 -- 34.0 -- 16.0
11/18/2019 07:00 114.80 0.00 -- 33.0 -- 16.0
11/18/2019 06:00 114.81 0.00 -- 33.0 -- 16.0
11/18/2019 05:00 114.81 0.00 -- 33.0 -- 16.0
11/18/2019 04:00 114.81 0.00 -- 33.0 -- 16.0
11/18/2019 03:00 114.81 0.00 -- 33.0 -- 16.0
11/18/2019 02:00 114.81 0.00 -- 33.0 -- 16.0
11/18/2019 01:00 114.81 0.00 -- 33.0 -- 16.0
11/18/2019 00:00 114.81 0.00 -- 32.0 -- 16.0
11/17/2019 23:00 114.81 0.00 -- 32.0 -- 16.0
11/17/2019 22:00 114.81 0.00 -- 31.0 -- 16.0
11/17/2019 21:00 114.81 0.00 -- 31.0 -- 16.0
11/17/2019 20:00 114.81 0.00 -- 31.0 -- 16.0
11/17/2019 19:00 114.81 0.00 -- 33.0 -- 16.0
11/17/2019 18:00 114.81 0.00 -- 33.0 -- 16.0
11/17/2019 17:00 114.81 0.00 -- 34.0 -- 16.0
11/17/2019 16:00 114.81 0.00 -- 34.0 -- 16.0
11/17/2019 15:00 114.81 0.00 -- 34.0 -- 16.0
11/17/2019 14:00 114.81 0.00 -- 33.0 -- 16.0
11/17/2019 13:00 114.81 0.00 -- 33.0 -- 16.0
11/17/2019 12:00 114.81 0.00 -- 31.0 -- 16.0
11/17/2019 11:00 114.81 0.00 -- 28.0 -- 16.0
11/17/2019 10:00 114.81 0.00 -- 24.0 -- 16.0
11/17/2019 09:00 114.81 0.00 -- 20.0 -- 16.0
11/17/2019 08:00 114.81 0.00 -- 19.0 -- 16.0
11/17/2019 07:00 114.81 0.00 -- 19.0 -- 16.0
11/17/2019 06:00 114.82 0.00 -- 19.0 -- 16.0
11/17/2019 05:00 114.82 0.00 -- 18.0 -- 16.0
11/17/2019 04:00 114.82 0.00 -- 17.0 -- 16.0
11/17/2019 03:00 114.82 0.00 -- 18.0 -- 16.0
11/17/2019 02:00 114.82 0.00 -- 19.0 -- 16.0
11/17/2019 01:00 114.82 0.00 -- 20.0 -- 16.0
11/17/2019 00:00 114.82 0.00 0.00 21.0 -- 16.0
11/16/2019 23:00 114.82 0.00 -- 22.0 -- 16.0
11/16/2019 22:00 114.82 0.00 -- 23.0 -- 16.0
11/16/2019 21:00 114.82 0.00 -- 25.0 -- 16.0
11/16/2019 20:00 114.82 0.00 -- 26.0 -- 16.0
11/16/2019 19:00 114.82 0.00 -- 27.0 -- 16.0
11/16/2019 18:00 114.82 0.00 -- 29.0 -- 16.0
11/16/2019 17:00 114.83 0.00 -- 31.0 -- 16.0
11/16/2019 16:00 114.83 0.00 -- 33.0 -- 16.8
11/16/2019 15:00 114.84 0.00 -- 33.0 -- 17.0
11/16/2019 14:00 114.83 0.00 -- 33.0 -- 17.0
11/16/2019 13:00 114.84 0.00 -- 33.0 -- 17.0
11/16/2019 12:00 114.83 0.00 -- 31.0 -- 16.3
11/16/2019 11:00 114.83 0.00 -- 28.0 -- 16.0
11/16/2019 10:00 114.83 0.00 -- 25.0 -- 16.0
11/16/2019 09:00 114.83 0.00 -- 23.0 -- 16.5
11/16/2019 08:00 114.83 0.00 -- 22.0 -- 16.0
11/16/2019 07:00 114.83 0.00 -- 24.0 -- 16.8
11/16/2019 06:00 114.83 0.00 -- 25.0 -- 16.8
11/16/2019 05:00 114.84 0.00 -- 26.0 -- 17.0
11/16/2019 04:00 114.86 0.00 -- 28.0 -- 17.3
11/16/2019 03:00 114.85 0.00 -- 31.0 -- 17.0
11/16/2019 02:00 114.85 0.00 -- 33.0 -- 17.0
11/16/2019 01:00 114.84 0.00 -- 36.0 -- 17.5
11/16/2019 00:00 114.84 0.00 0.00 38.0 -- 17.0
11/15/2019 23:00 114.84 0.00 -- 39.0 -- 17.0
11/15/2019 22:00 114.85 0.00 -- 41.0 -- 17.0
11/15/2019 21:00 114.84 0.00 -- 42.0 -- 17.0
11/15/2019 20:00 114.84 0.00 -- 43.0 -- 17.3
11/15/2019 19:00 114.86 0.00 -- 45.0 -- 17.3
11/15/2019 18:00 114.84 0.00 -- 44.0 -- 17.0
11/15/2019 17:00 114.84 0.00 -- 47.0 -- 17.0
11/15/2019 16:00 114.85 0.00 -- 48.0 -- 17.0
11/15/2019 15:00 114.84 0.00 -- 48.0 -- 17.0
11/15/2019 14:00 114.84 0.00 -- 47.0 -- 17.0
11/15/2019 13:00 114.84 0.00 -- 46.0 -- 17.0
11/15/2019 12:00 114.84 0.00 -- 44.0 -- 17.0
11/15/2019 11:00 114.84 0.00 -- 41.0 -- 17.0
11/15/2019 10:00 114.83 0.00 -- 35.0 -- 16.8
11/15/2019 09:00 114.83 0.00 -- 31.0 -- 17.0
11/15/2019 08:00 114.83 0.00 -- 26.0 -- 16.0
11/15/2019 07:00 114.83 0.00 -- 25.0 -- 16.3
11/15/2019 06:00 114.83 0.00 -- 25.0 -- 16.3
11/15/2019 05:00 114.83 0.00 -- 26.0 -- 16.0
11/15/2019 04:00 114.83 0.00 -- 25.0 -- 16.0
11/15/2019 03:00 114.83 0.00 -- 27.0 -- 16.0
11/15/2019 02:00 114.83 0.00 -- 27.0 -- 16.0
11/15/2019 01:00 114.83 0.00 -- 29.0 -- 16.0
11/15/2019 00:00 114.82 0.00 0.00 29.0 -- 16.0
11/14/2019 23:00 114.82 0.00 -- 29.0 -- 16.0
11/14/2019 22:00 114.82 0.00 -- 29.0 -- 16.0
11/14/2019 21:00 114.82 0.00 -- 28.0 -- 16.0
11/14/2019 20:00 114.81 0.00 -- 28.0 -- 16.0
11/14/2019 19:00 114.81 0.00 -- 30.0 -- 16.0
11/14/2019 18:00 114.81 0.00 -- 30.0 -- 16.0
11/14/2019 17:00 114.81 0.00 -- 33.0 -- 16.0
11/14/2019 16:00 114.81 0.00 -- 34.0 -- 16.0
11/14/2019 15:00 114.80 0.00 -- 32.0 -- 16.0
11/14/2019 14:00 114.81 0.00 -- 31.0 -- 16.0
11/14/2019 13:00 114.80 0.00 -- 30.0 -- 15.5
11/14/2019 12:00 114.80 0.00 -- 28.0 -- 15.0
11/14/2019 11:00 114.80 0.00 -- 25.0 -- 15.0
11/14/2019 10:00 114.79 0.00 -- 22.0 -- 15.0
11/14/2019 09:00 114.79 0.00 -- 19.0 -- 15.0
11/14/2019 08:00 114.79 0.00 -- 16.0 -- 15.0
11/14/2019 07:00 114.79 0.00 -- 17.0 -- 15.0
11/14/2019 06:00 114.79 0.00 -- 16.0 -- 15.0
11/14/2019 05:00 114.79 0.00 -- 14.0 -- 15.0
11/14/2019 04:00 114.79 0.00 -- 14.0 -- 15.0
11/14/2019 03:00 114.78 0.00 -- 15.0 -- 15.0
11/14/2019 02:00 114.78 0.00 -- 15.0 -- 15.0
11/14/2019 01:00 114.78 0.00 -- 16.0 -- 15.0
11/14/2019 00:00 114.78 0.00 0.00 18.0 -- 15.0
11/13/2019 23:00 114.78 0.00 -- 19.0 -- 15.0
11/13/2019 22:00 114.79 0.00 -- 21.0 -- 15.0
11/13/2019 21:00 114.79 0.00 -- 21.0 -- 15.0
11/13/2019 20:00 114.80 0.00 -- 23.0 -- 15.0
11/13/2019 19:00 114.80 0.00 -- 23.0 -- 15.5
11/13/2019 18:00 114.81 0.00 -- 24.0 -- 16.0
11/13/2019 17:00 114.81 0.00 -- 25.0 -- 16.3
11/13/2019 16:00 114.83 0.01 -- 26.0 -- 17.0
11/13/2019 15:00 114.83 0.00 -- 26.0 -- 16.8
11/13/2019 14:00 114.85 0.00 -- 25.0 -- 17.0
11/13/2019 13:00 114.85 0.00 -- 23.0 -- 17.0
11/13/2019 12:00 114.85 0.15 -- 23.0 -- 17.3
11/13/2019 11:00 114.85 0.09 -- 20.0 -- 17.0
11/13/2019 10:00 114.84 0.84 -- 18.0 -- 16.8
11/13/2019 09:00 114.81 0.00 -- 17.0 -- 16.0
11/13/2019 08:00 114.81 0.00 -- 16.0 -- 15.5
11/13/2019 07:00 114.79 0.00 -- 16.0 -- 15.0
11/13/2019 06:00 114.75 0.05 -- 17.0 -- 13.5
11/13/2019 05:00 114.73 0.00 -- 18.0 -- 13.0
11/13/2019 04:00 114.73 0.00 -- 18.0 -- 13.0
11/13/2019 03:00 114.72 0.00 -- 19.0 -- 13.0
11/13/2019 02:00 114.72 0.00 -- 20.0 -- 13.0
11/13/2019 01:00 114.71 0.00 -- 21.0 -- 12.8
11/13/2019 00:00 114.71 0.00 1.14 22.0 -- 12.5
11/12/2019 23:00 114.71 0.00 -- 24.0 -- 12.0
11/12/2019 22:00 114.70 0.02 -- 25.0 -- 12.0
11/12/2019 21:00 114.69 0.00 -- 28.0 -- 12.0
11/12/2019 20:00 114.69 0.00 -- 28.0 -- 12.0
11/12/2019 19:00 114.68 0.00 -- 28.0 -- 12.0
11/12/2019 18:00 114.68 0.00 -- 29.0 -- 11.5
11/12/2019 17:00 114.68 0.01 -- 30.0 -- 11.3
11/12/2019 16:00 114.67 0.00 -- 31.0 -- 11.0
11/12/2019 15:00 114.66 0.00 -- 33.0 -- 11.0
11/12/2019 14:00 114.65 0.01 -- 35.0 -- 10.5
11/12/2019 13:00 114.64 0.00 -- 36.0 -- 23.3
11/12/2019 12:00 114.64 0.00 -- 34.0 -- 37.0
11/12/2019 11:00 114.64 0.00 -- 33.0 -- 37.0
11/12/2019 10:00 114.65 0.00 -- 32.0 -- 37.0
11/12/2019 09:00 114.65 0.00 -- 32.0 -- 37.0
11/12/2019 08:00 114.65 0.00 -- 32.0 -- 37.0
11/12/2019 07:00 114.66 0.00 -- 32.0 -- 37.0
11/12/2019 06:00 114.66 0.00 -- 32.0 -- 37.0
11/12/2019 05:00 114.67 0.00 -- 32.0 -- 38.0
11/12/2019 04:00 114.66 0.00 -- 32.0 -- 38.0
11/12/2019 03:00 114.67 0.00 -- 32.0 -- 38.0
11/12/2019 02:00 114.67 0.00 -- 32.0 -- 38.0
11/12/2019 01:00 114.67 0.00 -- 32.0 -- 38.0
11/12/2019 00:00 114.67 0.00 0.04 33.0 -- 38.0
11/11/2019 23:00 114.67 0.00 -- 34.0 -- 38.0
11/11/2019 22:00 114.67 0.00 -- 35.0 -- 38.0
11/11/2019 21:00 114.68 0.00 -- 37.0 -- 38.0
11/11/2019 20:00 114.68 0.00 -- 41.0 -- 38.0
11/11/2019 19:00 114.68 0.00 -- 42.0 -- 38.0
11/11/2019 18:00 114.68 0.00 -- 43.0 -- 38.5
11/11/2019 17:00 114.69 0.00 -- 43.0 -- 38.8
11/11/2019 16:00 114.68 0.00 -- 44.0 -- 39.0
11/11/2019 15:00 114.69 0.00 -- 45.0 -- 39.0
11/11/2019 14:00 114.69 0.00 -- 45.0 -- 39.0
11/11/2019 13:00 114.70 0.00 -- 45.0 -- 39.0
11/11/2019 12:00 114.69 0.00 -- 45.0 -- 39.0
11/11/2019 11:00 114.70 0.00 -- 45.0 -- 39.0
11/11/2019 10:00 114.70 0.00 -- 43.0 -- 39.0
11/11/2019 09:00 114.71 0.00 -- 42.0 -- 39.3
11/11/2019 08:00 114.71 0.00 -- 42.0 -- 40.0
11/11/2019 07:00 114.71 0.00 -- 40.0 -- 40.0
11/11/2019 06:00 114.71 0.00 -- 39.0 -- 40.0
11/11/2019 05:00 114.71 0.00 -- 40.0 -- 40.0
11/11/2019 04:00 114.72 0.00 -- 42.0 -- 40.0
11/11/2019 03:00 114.72 0.00 -- 41.0 -- 40.0
11/11/2019 02:00 114.72 0.00 -- 42.0 -- 40.8
11/11/2019 01:00 114.73 0.00 -- 41.0 -- 41.0
11/11/2019 00:00 114.73 0.00 0.00 41.0 -- 41.0
11/10/2019 23:00 114.73 0.00 -- 41.0 -- 41.0
11/10/2019 22:00 114.74 0.00 -- 42.0 -- 41.0
11/10/2019 21:00 114.74 0.00 -- 44.0 -- 41.0
11/10/2019 20:00 114.74 0.00 -- 46.0 -- 41.0
11/10/2019 19:00 114.75 0.00 -- 44.0 -- 41.5
11/10/2019 18:00 114.75 0.00 -- 46.0 -- 42.0
11/10/2019 17:00 114.75 0.00 -- 47.0 -- 42.0
11/10/2019 16:00 114.75 0.00 -- 49.0 -- 42.0
11/10/2019 15:00 114.75 0.00 -- 48.0 -- 42.0
11/10/2019 14:00 114.75 0.00 -- 46.0 -- 42.0
11/10/2019 13:00 114.75 0.00 -- 44.0 -- 42.0
11/10/2019 12:00 114.75 0.00 -- 42.0 -- 42.0
11/10/2019 11:00 114.75 0.00 -- 40.0 -- 42.0
11/10/2019 10:00 114.75 0.00 -- 38.0 -- 42.0
11/10/2019 09:00 114.75 0.00 -- 35.0 -- 42.0
11/10/2019 08:00 114.75 0.00 -- 34.0 -- 42.0
11/10/2019 07:00 114.75 0.00 -- 33.0 -- 42.0
11/10/2019 06:00 114.76 0.00 -- 32.0 -- 42.0
11/10/2019 05:00 114.76 0.00 -- 32.0 -- 42.0
11/10/2019 04:00 114.76 0.00 -- 32.0 -- 42.0
11/10/2019 03:00 114.77 0.00 -- 31.0 -- 43.0
11/10/2019 02:00 114.76 0.00 -- 30.0 -- 42.8
11/10/2019 01:00 114.77 0.00 -- 30.0 -- 43.0
11/10/2019 00:00 114.77 0.00 0.00 30.0 -- 43.0
11/09/2019 23:00 114.78 0.00 -- 31.0 -- 43.0
11/09/2019 22:00 114.78 0.00 -- 30.0 -- 43.0
11/09/2019 21:00 114.78 0.00 -- 29.0 -- 43.3
11/09/2019 20:00 114.79 0.00 -- 28.0 -- 44.0
11/09/2019 19:00 114.79 0.00 -- 30.0 -- 44.0
11/09/2019 18:00 114.80 0.00 -- 33.0 -- 44.0
11/09/2019 17:00 114.80 0.00 -- 36.0 -- 44.0
11/09/2019 16:00 114.80 0.00 -- 38.0 -- 44.0
11/09/2019 15:00 114.80 0.00 -- 38.0 -- 44.5
11/09/2019 14:00 114.81 0.00 -- 37.0 -- 45.0
11/09/2019 13:00 114.81 0.00 -- 35.0 -- 45.0
11/09/2019 12:00 114.81 0.00 -- 33.0 -- 45.0
11/09/2019 11:00 114.81 0.00 -- 31.0 -- 45.0
11/09/2019 10:00 114.81 0.00 -- 28.0 -- 45.0
11/09/2019 09:00 114.82 0.00 -- 22.0 -- 45.0
11/09/2019 08:00 114.82 0.00 -- 21.0 -- 45.3
11/09/2019 07:00 114.83 0.00 -- 21.0 -- 46.0
11/09/2019 06:00 114.83 0.00 -- 22.0 -- 46.0
11/09/2019 05:00 114.84 0.00 -- 23.0 -- 46.0
11/09/2019 04:00 114.84 0.00 -- 24.0 -- 46.0
11/09/2019 03:00 114.85 0.00 -- 25.0 -- 46.8
11/09/2019 02:00 114.85 0.00 -- 25.0 -- 47.0
11/09/2019 01:00 114.86 0.00 -- 26.0 -- 47.0
11/09/2019 00:00 114.86 0.00 0.00 27.0 -- 47.5
11/08/2019 23:00 114.88 0.00 -- 28.0 -- 48.0
11/08/2019 22:00 114.89 0.00 -- 28.0 -- 48.5
11/08/2019 21:00 114.89 0.00 -- 29.0 -- 48.8
11/08/2019 20:00 114.90 0.00 -- 29.0 -- 49.0
11/08/2019 19:00 114.90 0.00 -- 29.0 -- 49.3
11/08/2019 18:00 114.91 0.00 -- 30.0 -- 50.0
11/08/2019 17:00 114.92 0.00 -- 31.0 -- 50.8
11/08/2019 16:00 114.95 0.00 -- 32.0 -- 51.8
11/08/2019 15:00 114.95 0.00 -- 33.0 -- 52.0
11/08/2019 14:00 114.96 0.00 -- 32.0 -- 52.0
11/08/2019 13:00 114.96 0.00 -- 33.0 -- 52.0
11/08/2019 12:00 114.96 0.00 -- 33.0 -- 52.3
11/08/2019 11:00 114.96 0.00 -- 32.0 -- 52.3
11/08/2019 10:00 114.97 0.00 -- 31.0 -- 52.3
11/08/2019 09:00 114.97 0.00 -- 30.0 -- 52.0
11/08/2019 08:00 114.97 0.01 -- 29.0 -- 52.8
11/08/2019 07:00 114.97 0.00 -- 30.0 -- 53.0
11/08/2019 06:00 114.98 0.00 -- 31.0 -- 53.0
11/08/2019 05:00 114.98 0.00 -- 32.0 -- 53.5
11/08/2019 04:00 114.99 0.00 -- 34.0 -- 54.0
11/08/2019 03:00 114.99 0.00 -- 35.0 -- 54.0
11/08/2019 02:00 115.00 0.00 -- 35.0 -- 54.5
11/08/2019 01:00 115.01 0.00 -- 36.0 -- 55.0
11/08/2019 00:00 115.01 0.02 0.01 38.0 -- 55.0
11/07/2019 23:00 115.02 0.02 -- 40.0 -- 55.0
11/07/2019 22:00 115.02 0.04 -- 41.0 -- 55.0
11/07/2019 21:00 115.02 0.06 -- 42.0 -- 55.5
11/07/2019 20:00 115.03 0.10 -- 42.0 -- 55.8
11/07/2019 19:00 115.02 0.12 -- 43.0 -- 55.5
11/07/2019 18:00 115.02 0.06 -- 44.0 -- 55.5
11/07/2019 17:00 115.03 0.04 -- 46.0 -- 56.0
11/07/2019 16:00 115.03 0.01 -- 48.0 -- 56.0
11/07/2019 15:00 115.04 0.00 -- 52.0 -- 56.3
11/07/2019 14:00 115.05 0.00 -- 51.0 -- 57.0
11/07/2019 13:00 115.06 0.00 -- 50.0 -- 57.8
11/07/2019 12:00 115.08 0.00 -- 49.0 -- 59.0
11/07/2019 11:00 115.09 0.00 -- 46.0 -- 59.0
11/07/2019 10:00 115.09 0.00 -- 46.0 -- 59.3
11/07/2019 09:00 115.10 0.00 -- 44.0 -- 59.8
11/07/2019 08:00 115.10 0.00 -- 39.0 -- 60.0
11/07/2019 07:00 115.11 0.00 -- 36.0 -- 60.5
11/07/2019 06:00 115.12 0.00 -- 36.0 -- 60.5
11/07/2019 05:00 115.12 0.00 -- 32.0 -- 61.0
11/07/2019 04:00 115.13 0.00 -- 31.0 -- 61.0
11/07/2019 03:00 115.13 0.00 -- 30.0 -- 61.3
11/07/2019 02:00 115.14 0.00 -- 30.0 -- 62.0
11/07/2019 01:00 115.15 0.00 -- 31.0 -- 62.0
11/07/2019 00:00 115.15 0.00 0.47 31.0 -- 62.5
11/06/2019 23:00 115.15 0.00 -- 33.0 -- 63.0
11/06/2019 22:00 115.16 0.00 -- 34.0 -- 63.0
11/06/2019 21:00 115.17 0.00 -- 35.0 -- 63.5
11/06/2019 20:00 115.18 0.00 -- 37.0 -- 64.0
11/06/2019 19:00 115.19 0.00 -- 40.0 -- 65.0
11/06/2019 18:00 115.20 0.00 -- 44.0 -- 65.3
11/06/2019 17:00 115.22 0.00 -- 49.0 -- 66.0
11/06/2019 16:00 115.22 0.00 -- 50.0 -- 66.3
11/06/2019 15:00 115.23 0.00 -- 50.0 -- 67.0
11/06/2019 14:00 115.24 0.00 -- 50.0 -- 67.0
11/06/2019 13:00 115.24 0.00 -- 49.0 -- 67.3
11/06/2019 12:00 115.24 0.00 -- 48.0 -- 67.3
11/06/2019 11:00 115.25 0.00 -- 47.0 -- 67.8
11/06/2019 10:00 115.25 0.00 -- 44.0 -- 68.0
11/06/2019 09:00 115.26 0.00 -- 42.0 -- 68.0
11/06/2019 08:00 115.26 0.00 -- 38.0 -- 68.8
11/06/2019 07:00 115.27 0.00 -- 36.0 -- 69.0
11/06/2019 06:00 115.28 0.00 -- 38.0 -- 69.5
11/06/2019 05:00 115.28 0.00 -- 40.0 -- 70.0
11/06/2019 04:00 115.29 0.00 -- 43.0 -- 70.0
11/06/2019 03:00 115.30 0.00 -- 46.0 -- 70.8
11/06/2019 02:00 115.31 0.00 -- 46.0 -- 71.0
11/06/2019 01:00 115.31 0.00 -- 46.0 -- 71.8
11/06/2019 00:00 115.32 0.00 0.00 48.0 -- 72.0
11/05/2019 23:00 115.33 0.00 -- 49.0 -- 72.3
11/05/2019 22:00 115.34 0.00 -- 51.0 -- 73.0
11/05/2019 21:00 115.35 0.00 -- 52.0 -- 73.3
11/05/2019 20:00 115.35 0.00 -- 51.0 -- 74.0
11/05/2019 19:00 115.36 0.00 -- 51.0 -- 74.0
11/05/2019 18:00 115.37 0.00 -- 52.0 -- 74.8
11/05/2019 17:00 115.38 0.02 -- 52.0 -- 75.0
11/05/2019 16:00 115.38 0.00 -- 52.0 -- 75.8
11/05/2019 15:00 115.39 0.01 -- 52.0 -- 76.0
11/05/2019 14:00 115.40 0.00 -- 54.0 -- 76.3
11/05/2019 13:00 115.41 0.00 -- 56.0 -- 77.0
11/05/2019 12:00 115.42 0.00 -- 57.0 -- 77.5
11/05/2019 11:00 115.43 0.00 -- 56.0 -- 78.0
11/05/2019 10:00 115.45 0.00 -- 52.0 -- 79.0
11/05/2019 09:00 115.45 0.00 -- 47.0 -- 79.5
11/05/2019 08:00 115.47 0.00 -- 43.0 -- 80.3
11/05/2019 07:00 115.47 0.00 -- 42.0 -- 80.8
11/05/2019 06:00 115.49 0.00 -- 42.0 -- 81.5
11/05/2019 05:00 115.50 0.00 -- 41.0 -- 82.0
11/05/2019 04:00 115.51 0.00 -- 42.0 -- 82.5
11/05/2019 03:00 115.52 0.00 -- 42.0 -- 83.0
11/05/2019 02:00 115.53 0.00 -- 41.0 -- 84.0
11/05/2019 01:00 115.54 0.00 -- 43.0 -- 84.8
11/05/2019 00:00 115.56 0.00 0.03 46.0 -- 85.8
11/04/2019 23:00 115.57 0.00 -- 46.0 -- 86.3
11/04/2019 22:00 115.58 0.00 -- 47.0 -- 87.0
11/04/2019 21:00 115.59 0.00 -- 47.0 -- 87.8
11/04/2019 20:00 115.61 0.00 -- 46.0 -- 88.8
11/04/2019 19:00 115.62 0.00 -- 47.0 -- 89.5
11/04/2019 18:00 115.64 0.00 -- 46.0 -- 90.5
11/04/2019 17:00 115.66 0.00 -- 50.0 -- 91.3
11/04/2019 16:00 115.67 0.00 -- 51.0 -- 92.5
11/04/2019 15:00 115.69 0.00 -- 51.0 -- 93.8
11/04/2019 14:00 115.71 0.00 -- 50.0 -- 95.0
11/04/2019 13:00 115.74 0.00 -- 49.0 -- 97.5
11/04/2019 12:00 115.78 0.00 -- 48.0 -- 89.8
11/04/2019 11:00 -- -- -- 46.0 -- 52.5
11/04/2019 10:00 -- -- -- 41.0 -- 53.0
11/04/2019 09:00 -- -- -- 36.0 -- 53.0
11/04/2019 08:00 -- -- -- 30.0 -- 53.3
11/04/2019 07:00 -- -- -- 31.0 -- 53.3
11/04/2019 06:00 -- -- -- 30.0 -- 53.5
11/04/2019 05:00 -- -- -- 31.0 -- 53.5
11/04/2019 04:00 -- -- -- 32.0 -- 54.0
11/04/2019 03:00 -- -- -- 33.0 -- 54.0
11/04/2019 02:00 -- -- -- 33.0 -- 54.0
11/04/2019 01:00 -- -- -- 35.0 -- 54.8
11/04/2019 00:00 -- -- 0.00 38.0 -- 55.0